Location: Caltech
(34.1382°N, 118.1253°W)
Time: 18:37:27
(UTC-07:00)

Courier 1B - Visible Passes

Search period start: 17 September 2014 00:00
Search period end: 27 September 2014 00:00
Orbit: 963 x 1209 km, 28.3° (Epoch: 17 September)

Date Brightness Start Highest point End Pass type
(mag) Time Alt. Az. Time Alt. Az. Time Alt. Az.
17 Sep 9.2 03:14:41 28° ESE 03:14:41 28° ESE 03:18:12 10° E visible
17 Sep 8.2 05:01:35 32° WSW 05:04:45 50° S 05:12:14 10° ESE visible
18 Sep 8.1 04:11:21 53° S 04:11:21 53° S 04:18:25 10° ESE visible
18 Sep 8.8 05:58:16 11° W 06:04:49 34° SSW 06:11:41 10° SE visible
19 Sep 9.3 03:21:11 27° ESE 03:21:11 27° ESE 03:24:32 10° ESE visible
19 Sep 8.4 05:08:06 29° WSW 05:11:03 40° SSW 05:18:10 10° SE visible
20 Sep 8.3 04:17:59 44° S 04:17:59 44° S 04:24:30 10° ESE visible
20 Sep 9.1 06:05:16 10° WSW 06:10:59 23° SSW 06:16:50 10° SSE visible
21 Sep 9.4 03:27:55 24° SE 03:27:55 24° SE 03:30:45 10° ESE visible
21 Sep 8.8 05:14:50 24° SW 05:17:16 29° SSW 05:23:40 10° SSE visible
22 Sep 8.7 04:24:50 32° S 04:24:50 32° S 04:30:16 10° SE visible
22 Sep 9.5 06:13:30 10° WSW 06:17:07 14° SSW 06:20:46 10° S visible
23 Sep 9.7 03:34:52 18° SE 03:34:52 18° SE 03:36:42 10° SE visible
23 Sep 9.2 05:21:48 17° SW 05:23:26 18° SSW 05:28:23 10° SSE visible
23 Sep 9.6 20:51:36 10° S 20:52:09 11° S 20:52:09 11° S visible
24 Sep 9.3 04:31:53 21° S 04:31:53 21° S 04:35:27 10° SSE visible
24 Sep 9.3 20:00:00 10° SSE 20:01:53 11° SSE 20:02:11 11° SSE visible
25 Sep 10.0 03:41:59 11° SSE 03:41:59 11° SSE 03:42:14 10° SE visible
25 Sep 9.1 20:56:24 10° SSW 20:59:05 20° S 20:59:05 20° S visible
26 Sep 9.8 04:39:02 11° S 04:39:02 11° S 04:39:26 10° S visible
26 Sep 8.8 20:03:33 10° SSW 20:08:03 20° SSE 20:09:01 19° SE visible
26 Sep 9.8 21:55:24 10° SW 21:55:55 12° SW 21:55:55 12° SW visible
